| time (UTC) | temp F | wind direction | speed knots | gust knots | rain 1hr in | rain 24hr in | rain mn in | humidity % | barometer mb |
| 20260510051627 | 52 | 108 | 0.0 | 0.0 | 0.00 | 0.00 | 0.00 | 97 | 1010.3 |
| 20260510051124 | 52 | 108 | 0.0 | 0.0 | 0.00 | 0.00 | 0.00 | 97 | 1010.3 |
| 20260510050621 | 52 | 96 | 0.0 | 0.0 | 0.00 | 0.00 | 0.00 | 97 | 1010.3 |
| 20260510050118 | 52 | 97 | 0.0 | 0.0 | 0.00 | 0.00 | 0.00 | 97 | 1010.0 |
| 20260510045615 | 51 | 114 | 0.0 | 0.0 | 0.00 | 0.00 | 0.00 | 97 | 1010.0 |
| 20260510045111 | 51 | 102 | 0.0 | 0.0 | 0.00 | 0.00 | 0.00 | 97 | 1010.3 |
| 20260510044607 | 51 | 108 | 0.0 | 0.0 | 0.00 | 0.00 | 0.00 | 97 | 1010.3 |
| 20260510044105 | 51 | 95 | 0.0 | 0.0 | 0.00 | 0.00 | 0.00 | 97 | 1010.3 |
| 20260510043600 | 51 | 105 | 0.0 | 0.0 | 0.00 | 0.00 | 0.00 | 96 | 1010.7 |
| 20260510043057 | 51 | 109 | 0.0 | 0.0 | 0.00 | 0.00 | 0.00 | 97 | 1010.7 |
| 20260510042555 | 51 | 110 | 0.0 | 0.0 | 0.00 | 0.00 | 0.00 | 97 | 1010.3 |
| 20260510042051 | 51 | 105 | 0.0 | 0.0 | 0.00 | 0.00 | 0.00 | 96 | 1010.0 |
| 20260510041548 | 51 | 99 | 0.0 | 0.0 | 0.00 | 0.00 | 0.00 | 96 | 1010.0 |
| 20260510041046 | 51 | 104 | 0.0 | 0.0 | 0.00 | 0.00 | 0.00 | 96 | 1010.0 |
| 20260510040542 | 52 | 104 | 0.0 | 0.0 | 0.00 | 0.00 | 0.00 | 96 | 1010.0 |
| 20260510040038 | 52 | 102 | 0.0 | 0.0 | 0.00 | 0.44 | 0.44 | 96 | 1010.3 |
| 20260510035535 | 52 | 112 | 0.0 | 0.0 | 0.00 | 0.44 | 0.44 | 96 | 1010.3 |
| 20260510035034 | 52 | 103 | 0.0 | 0.0 | 0.00 | 0.44 | 0.44 | 96 | 1010.3 |
| 20260510034533 | 52 | 108 | 0.0 | 0.0 | 0.00 | 0.44 | 0.44 | 96 | 1010.0 |
| 20260510034029 | 52 | 97 | 0.0 | 0.0 | 0.00 | 0.44 | 0.44 | 96 | 1010.0 |
| 20260510033525 | 52 | 102 | 0.0 | 0.0 | 0.00 | 0.44 | 0.44 | 96 | 1010.0 |
| 20260510033023 | 51 | 110 | 0.0 | 0.0 | 0.00 | 0.44 | 0.44 | 96 | 1010.0 |
| 20260510032519 | 52 | 98 | 0.0 | 0.0 | 0.00 | 0.44 | 0.44 | 96 | 1010.0 |
| 20260510032015 | 52 | 109 | 0.0 | 0.0 | 0.00 | 0.44 | 0.44 | 96 | 1010.0 |
| 20260510031510 | 51 | 99 | 0.0 | 0.0 | 0.00 | 0.44 | 0.44 | 96 | 1010.0 |
| 20260510031006 | 52 | 105 | 0.0 | 0.0 | 0.00 | 0.44 | 0.44 | 96 | 1010.0 |
| 20260510030502 | 52 | 94 | 0.0 | 0.0 | 0.00 | 0.44 | 0.44 | 96 | 1010.0 |
| 20260510025959 | 52 | 134 | 0.0 | 0.0 | 0.00 | 0.44 | 0.44 | 96 | 1010.0 |
| 20260510025456 | 52 | 105 | 0.0 | 0.0 | 0.00 | 0.44 | 0.44 | 96 | 1010.0 |
| 20260510024954 | 52 | 102 | 0.0 | 0.0 | 0.00 | 0.44 | 0.44 | 96 | 1010.3 |
| 20260510024450 | 52 | 103 | 0.0 | 0.0 | 0.00 | 0.44 | 0.44 | 96 | 1010.3 |
| 20260510023946 | 52 | 104 | 0.0 | 0.0 | 0.00 | 0.44 | 0.44 | 96 | 1010.3 |
| 20260510023443 | 53 | 103 | 0.0 | 0.0 | 0.00 | 0.44 | 0.44 | 96 | 1010.3 |
| 20260510022939 | 53 | 102 | 0.0 | 0.0 | 0.00 | 0.44 | 0.44 | 96 | 1010.0 |
| 20260510022439 | 53 | 102 | 0.0 | 0.0 | 0.00 | 0.44 | 0.44 | 96 | 1010.0 |
| 20260510021938 | 53 | 106 | 0.0 | 0.0 | 0.00 | 0.44 | 0.44 | 96 | 1010.0 |
| 20260510021436 | 53 | 104 | 0.0 | 0.0 | 0.00 | 0.44 | 0.44 | 96 | 1010.0 |
| 20260510020932 | 53 | 104 | 0.0 | 0.0 | 0.00 | 0.44 | 0.44 | 96 | 1010.0 |
| 20260510020427 | 53 | 104 | 0.0 | 0.0 | 0.00 | 0.44 | 0.44 | 96 | 1010.3 |
| 20260510015923 | 53 | 105 | 0.0 | 0.0 | 0.00 | 0.44 | 0.44 | 96 | 1010.3 |
| 20260510015419 | 53 | 96 | 0.0 | 0.0 | 0.00 | 0.44 | 0.44 | 96 | 1010.3 |
| 20260510014914 | 53 | 103 | 0.0 | 0.0 | 0.00 | 0.44 | 0.44 | 96 | 1010.3 |
| 20260510014412 | 53 | 122 | 0.0 | 1.7 | 0.00 | 0.44 | 0.44 | 96 | 1010.3 |
| 20260510013908 | 53 | 101 | 0.0 | 0.0 | 0.00 | 0.44 | 0.44 | 96 | 1010.0 |
| 20260510013403 | 53 | 109 | 0.0 | 0.0 | 0.00 | 0.44 | 0.44 | 96 | 1010.0 |
| 20260510012858 | 53 | 95 | 0.9 | 1.7 | 0.00 | 0.44 | 0.44 | 96 | 1010.0 |
| 20260510012354 | 53 | 104 | 0.0 | 0.0 | 0.00 | 0.44 | 0.44 | 96 | 1010.0 |
| 20260510011848 | 53 | 105 | 0.0 | 0.0 | 0.00 | 0.44 | 0.44 | 96 | 1010.0 |
| 20260510011344 | 53 | 107 | 0.0 | 0.0 | 0.00 | 0.44 | 0.44 | 96 | 1010.0 |
| 20260510010840 | 53 | 107 | 0.0 | 0.0 | 0.00 | 0.44 | 0.44 | 96 | 1010.0 |
| 20260510010338 | 53 | 104 | 0.0 | 0.0 | 0.00 | 0.44 | 0.44 | 96 | 1010.0 |
| 20260510005834 | 53 | 100 | 0.0 | 0.0 | 0.00 | 0.44 | 0.44 | 96 | 1010.0 |
| 20260510005331 | 53 | 107 | 0.0 | 0.0 | 0.00 | 0.44 | 0.44 | 96 | 1010.3 |
| 20260510004828 | 53 | 101 | 0.0 | 0.0 | 0.00 | 0.44 | 0.44 | 96 | 1010.0 |
| 20260510004326 | 53 | 103 | 0.0 | 0.0 | 0.00 | 0.44 | 0.44 | 96 | 1010.0 |
| 20260510003823 | 53 | 104 | 0.0 | 0.0 | 0.00 | 0.44 | 0.44 | 96 | 1010.0 |
| 20260510003320 | 53 | 103 | 0.0 | 0.0 | 0.00 | 0.44 | 0.44 | 96 | 1010.0 |
| 20260510002819 | 53 | 104 | 0.0 | 0.0 | 0.00 | 0.44 | 0.44 | 96 | 1010.0 |
| 20260510002316 | 53 | 105 | 0.0 | 0.0 | 0.00 | 0.44 | 0.44 | 96 | 1010.0 |
| 20260510001813 | 53 | 100 | 0.0 | 0.0 | 0.00 | 0.44 | 0.44 | 96 | 1009.7 |
| 20260510001311 | 53 | 103 | 0.0 | 0.0 | 0.00 | 0.44 | 0.44 | 96 | 1009.7 |
| 20260510000806 | 53 | 106 | 0.0 | 0.0 | 0.00 | 0.44 | 0.44 | 96 | 1009.7 |
| 20260510000305 | 53 | 107 | 0.0 | 0.0 | 0.00 | 0.44 | 0.44 | 96 | 1009.3 |
| 20260509235801 | 53 | 108 | 0.0 | 0.0 | 0.00 | 0.44 | 0.44 | 96 | 1009.3 |
| 20260509235258 | 53 | 107 | 0.0 | 0.0 | 0.00 | 0.44 | 0.44 | 96 | 1009.3 |
| 20260509234753 | 53 | 102 | 0.0 | 0.0 | 0.00 | 0.44 | 0.44 | 96 | 1009.3 |
| 20260509234250 | 53 | 100 | 0.0 | 0.0 | 0.00 | 0.44 | 0.44 | 96 | 1009.3 |
| 20260509233749 | 53 | 104 | 0.0 | 0.0 | 0.00 | 0.44 | 0.44 | 96 | 1009.3 |
| 20260509233246 | 54 | 97 | 0.0 | 0.0 | 0.00 | 0.44 | 0.44 | 96 | 1009.0 |
| 20260509232742 | 54 | 100 | 0.0 | 0.0 | 0.00 | 0.44 | 0.44 | 96 | 1009.0 |
| 20260509232239 | 54 | 99 | 0.0 | 0.0 | 0.00 | 0.44 | 0.44 | 96 | 1009.0 |
| 20260509231735 | 54 | 112 | 0.0 | 0.0 | 0.00 | 0.44 | 0.44 | 96 | 1008.6 |
| 20260509231233 | 54 | 100 | 0.0 | 0.0 | 0.00 | 0.44 | 0.44 | 96 | 1009.0 |
| 20260509230730 | 54 | 96 | 0.0 | 1.7 | 0.00 | 0.44 | 0.44 | 96 | 1009.0 |
| 20260509230227 | 54 | 81 | 0.0 | 0.0 | 0.00 | 0.44 | 0.44 | 96 | 1009.0 |
| 20260509225722 | 54 | 110 | 0.0 | 0.0 | 0.00 | 0.44 | 0.44 | 97 | 1008.6 |
| 20260509225218 | 55 | 108 | 0.0 | 0.0 | 0.00 | 0.44 | 0.44 | 97 | 1008.6 |
| 20260509224714 | 55 | 109 | 0.0 | 0.0 | 0.00 | 0.44 | 0.44 | 97 | 1008.6 |
| 20260509224211 | 55 | 161 | 0.0 | 1.7 | 0.00 | 0.44 | 0.44 | 97 | 1009.0 |
| 20260509223708 | 55 | 97 | 0.0 | 0.0 | 0.00 | 0.44 | 0.44 | 97 | 1009.0 |
| 20260509223205 | 55 | 101 | 0.0 | 0.0 | 0.00 | 0.44 | 0.44 | 97 | 1009.0 |
| 20260509222702 | 55 | 124 | 0.0 | 1.7 | 0.00 | 0.44 | 0.44 | 97 | 1009.0 |
| 20260509222157 | 56 | 91 | 0.0 | 0.0 | 0.00 | 0.44 | 0.44 | 97 | 1009.0 |
| 20260509221648 | 55 | 120 | 0.0 | 0.0 | 0.00 | 0.44 | 0.44 | 98 | 1009.3 |
| 20260509221144 | 55 | 98 | 0.0 | 0.0 | 0.00 | 0.44 | 0.44 | 98 | 1009.0 |
| 20260509220640 | 55 | 102 | 0.0 | 0.0 | 0.00 | 0.44 | 0.44 | 98 | 1009.0 |
| 20260509220136 | 55 | 115 | 0.0 | 0.0 | 0.00 | 0.44 | 0.44 | 98 | 1009.0 |
| 20260509215632 | 55 | 127 | 0.0 | 1.7 | 0.00 | 0.44 | 0.44 | 98 | 1009.0 |
| 20260509215129 | 55 | 134 | 0.9 | 1.7 | 0.00 | 0.44 | 0.44 | 98 | 1009.0 |
| 20260509214626 | 55 | 104 | 0.0 | 0.0 | 0.00 | 0.44 | 0.44 | 98 | 1009.0 |
| 20260509214123 | 55 | 119 | 0.9 | 1.7 | 0.00 | 0.44 | 0.44 | 98 | 1009.3 |
| 20260509213619 | 55 | 104 | 0.0 | 0.0 | 0.00 | 0.44 | 0.44 | 98 | 1009.3 |
| 20260509213116 | 54 | 120 | 0.0 | 0.0 | 0.00 | 0.44 | 0.44 | 98 | 1009.0 |
| 20260509212613 | 54 | 109 | 0.0 | 0.0 | 0.00 | 0.44 | 0.44 | 98 | 1009.3 |
| 20260509212110 | 54 | 128 | 0.0 | 0.0 | 0.00 | 0.44 | 0.44 | 98 | 1009.3 |
| 20260509211606 | 54 | 104 | 0.0 | 0.0 | 0.00 | 0.44 | 0.44 | 98 | 1009.3 |
| 20260509211102 | 54 | 99 | 0.0 | 0.0 | 0.00 | 0.44 | 0.44 | 98 | 1009.3 |
| 20260509210559 | 54 | 137 | 0.0 | 0.0 | 0.00 | 0.44 | 0.44 | 98 | 1009.0 |
| 20260509210056 | 54 | 107 | 0.0 | 0.0 | 0.00 | 0.44 | 0.44 | 98 | 1009.3 |
| 20260509205550 | 54 | 99 | 0.0 | 0.0 | 0.00 | 0.44 | 0.44 | 98 | 1009.3 |
| 20260509205045 | 54 | 105 | 0.0 | 0.0 | 0.00 | 0.44 | 0.44 | 98 | 1009.7 |
| 20260509204542 | 54 | 119 | 0.9 | 1.7 | 0.00 | 0.44 | 0.44 | 98 | 1009.7 |
| 20260509204038 | 54 | 86 | 0.9 | 1.7 | 0.00 | 0.44 | 0.44 | 98 | 1009.7 |
| 20260509203534 | 53 | 104 | 0.0 | 0.0 | 0.00 | 0.44 | 0.44 | 98 | 1009.7 |
| 20260509203033 | 53 | 101 | 0.0 | 0.0 | 0.00 | 0.44 | 0.44 | 98 | 1009.7 |
| 20260509202527 | 53 | 97 | 0.0 | 0.0 | 0.00 | 0.44 | 0.44 | 98 | 1009.7 |
| 20260509202023 | 53 | 88 | 0.0 | 0.0 | 0.00 | 0.44 | 0.44 | 98 | 1009.7 |
| 20260509201518 | 53 | 85 | 0.0 | 0.0 | 0.00 | 0.44 | 0.44 | 98 | 1009.7 |
| 20260509201016 | 53 | 101 | 0.0 | 1.7 | 0.00 | 0.44 | 0.44 | 98 | 1010.0 |
| 20260509200515 | 52 | 86 | 0.0 | 0.0 | 0.00 | 0.44 | 0.44 | 98 | 1010.0 |
| 20260509200013 | 52 | 106 | 0.0 | 0.0 | 0.01 | 0.44 | 0.44 | 98 | 1010.0 |
| 20260509195508 | 52 | 102 | 0.0 | 0.0 | 0.01 | 0.44 | 0.44 | 98 | 1010.3 |
| 20260509195008 | 52 | 110 | 0.0 | 0.0 | 0.01 | 0.44 | 0.44 | 98 | 1010.3 |
| 20260509194504 | 52 | 101 | 0.0 | 0.0 | 0.01 | 0.44 | 0.44 | 98 | 1010.3 |
| 20260509194001 | 52 | 107 | 0.0 | 0.0 | 0.01 | 0.44 | 0.44 | 98 | 1010.7 |
| 20260509193500 | 51 | 104 | 0.0 | 0.0 | 0.01 | 0.44 | 0.44 | 98 | 1010.3 |
| 20260509192957 | 51 | 102 | 0.0 | 0.0 | 0.00 | 0.43 | 0.43 | 98 | 1010.7 |
| 20260509192454 | 51 | 103 | 0.0 | 0.0 | 0.00 | 0.43 | 0.43 | 98 | 1010.3 |
| 20260509191948 | 51 | 103 | 0.0 | 0.0 | 0.00 | 0.43 | 0.43 | 98 | 1010.7 |
| 20260509191444 | 51 | 104 | 0.0 | 0.0 | 0.00 | 0.43 | 0.43 | 98 | 1010.7 |
| 20260509190940 | 51 | 105 | 0.0 | 0.0 | 0.00 | 0.43 | 0.43 | 98 | 1010.7 |
| 20260509190437 | 51 | 101 | 0.0 | 0.0 | 0.00 | 0.43 | 0.43 | 97 | 1010.7 |
| 20260509185935 | 51 | 103 | 0.0 | 0.0 | 0.03 | 0.42 | 0.42 | 98 | 1010.7 |
| 20260509185432 | 51 | 107 | 0.0 | 0.0 | 0.03 | 0.42 | 0.42 | 97 | 1011.0 |
| 20260509184929 | 51 | 110 | 0.0 | 0.0 | 0.02 | 0.41 | 0.41 | 97 | 1011.0 |
| 20260509184427 | 51 | 102 | 0.0 | 0.0 | 0.02 | 0.41 | 0.41 | 97 | 1010.7 |
| 20260509183923 | 51 | 107 | 0.0 | 0.0 | 0.02 | 0.41 | 0.41 | 97 | 1011.0 |
| 20260509183417 | 51 | 102 | 0.0 | 0.0 | 0.01 | 0.40 | 0.40 | 97 | 1011.0 |
| 20260509182914 | 51 | 107 | 0.0 | 0.0 | 0.01 | 0.40 | 0.40 | 97 | 1011.0 |
| 20260509182411 | 51 | 103 | 0.0 | 0.0 | 0.01 | 0.40 | 0.40 | 97 | 1011.0 |
| 20260509181908 | 50 | 104 | 0.0 | 0.0 | 0.01 | 0.40 | 0.40 | 97 | 1011.0 |
| 20260509181406 | 50 | 128 | 0.0 | 0.0 | 0.01 | 0.40 | 0.40 | 97 | 1010.7 |
| 20260509180903 | 50 | 105 | 0.0 | 0.0 | 0.00 | 0.39 | 0.39 | 97 | 1011.0 |
| 20260509180358 | 50 | 102 | 0.0 | 0.0 | 0.00 | 0.39 | 0.39 | 97 | 1011.0 |
| 20260509175855 | 50 | 93 | 0.0 | 0.0 | 0.02 | 0.39 | 0.39 | 97 | 1011.0 |
| 20260509175351 | 50 | 92 | 0.0 | 0.0 | 0.02 | 0.39 | 0.39 | 97 | 1010.7 |
| 20260509174848 | 50 | 111 | 0.0 | 0.0 | 0.02 | 0.39 | 0.39 | 97 | 1011.0 |
| 20260509174344 | 50 | 104 | 0.0 | 0.0 | 0.01 | 0.38 | 0.38 | 97 | 1011.0 |
| 20260509173840 | 50 | 110 | 0.0 | 1.7 | 0.01 | 0.38 | 0.38 | 97 | 1011.0 |
| 20260509173335 | 49 | 99 | 0.0 | 0.0 | 0.01 | 0.38 | 0.38 | 97 | 1011.0 |
| 20260509172831 | 49 | 107 | 0.0 | 0.0 | 0.01 | 0.38 | 0.38 | 97 | 1011.4 |
| 20260509172328 | 49 | 103 | 0.0 | 0.0 | 0.01 | 0.38 | 0.38 | 97 | 1011.4 |
| 20260509171824 | 49 | 91 | 0.0 | 0.0 | 0.01 | 0.38 | 0.38 | 97 | 1011.4 |
| 20260509171320 | 49 | 102 | 0.0 | 0.0 | 0.01 | 0.38 | 0.38 | 97 | 1011.4 |
| 20260509170817 | 49 | 105 | 0.0 | 0.0 | 0.01 | 0.38 | 0.38 | 97 | 1011.4 |
| 20260509170312 | 49 | 107 | 0.0 | 0.0 | 0.00 | 0.37 | 0.37 | 97 | 1011.4 |
| 20260509165812 | 49 | 92 | 0.0 | 0.0 | 0.02 | 0.37 | 0.37 | 97 | 1011.4 |
| 20260509165307 | 49 | 95 | 0.0 | 0.0 | 0.02 | 0.37 | 0.37 | 97 | 1011.7 |
| 20260509164803 | 49 | 98 | 0.0 | 0.0 | 0.02 | 0.37 | 0.37 | 97 | 1011.7 |
| 20260509164300 | 48 | 105 | 0.0 | 0.0 | 0.02 | 0.37 | 0.37 | 97 | 1011.7 |
| 20260509163756 | 48 | 112 | 0.0 | 0.0 | 0.02 | 0.37 | 0.37 | 97 | 1011.4 |
| 20260509163253 | 48 | 100 | 0.0 | 0.0 | 0.02 | 0.37 | 0.37 | 97 | 1011.7 |
| 20260509162752 | 48 | 101 | 0.0 | 0.0 | 0.01 | 0.36 | 0.36 | 97 | 1011.7 |
| 20260509162245 | 48 | 100 | 0.0 | 0.0 | 0.01 | 0.36 | 0.36 | 97 | 1011.7 |
| 20260509161742 | 48 | 104 | 0.0 | 0.0 | 0.01 | 0.36 | 0.36 | 97 | 1011.7 |
| 20260509161238 | 48 | 106 | 0.0 | 0.0 | 0.01 | 0.36 | 0.36 | 97 | 1012.0 |
| 20260509160733 | 48 | 106 | 0.0 | 0.0 | 0.01 | 0.36 | 0.36 | 97 | 1012.0 |
| 20260509160230 | 48 | 124 | 0.0 | 0.0 | 0.00 | 0.35 | 0.35 | 97 | 1012.0 |
| 20260509155724 | 48 | 112 | 0.0 | 0.0 | 0.05 | 0.35 | 0.35 | 97 | 1012.4 |
| 20260509155221 | 48 | 119 | 0.0 | 0.0 | 0.05 | 0.35 | 0.35 | 97 | 1012.4 |
| 20260509154717 | 48 | 121 | 0.0 | 1.7 | 0.04 | 0.34 | 0.34 | 97 | 1012.4 |
| 20260509154215 | 48 | 112 | 0.0 | 0.0 | 0.04 | 0.34 | 0.34 | 97 | 1012.4 |
| 20260509153712 | 47 | 107 | 0.0 | 0.0 | 0.04 | 0.34 | 0.34 | 97 | 1012.7 |
| 20260509153208 | 47 | 99 | 0.0 | 0.0 | 0.03 | 0.33 | 0.33 | 97 | 1012.7 |
| 20260509152704 | 47 | 106 | 0.0 | 0.0 | 0.03 | 0.33 | 0.33 | 96 | 1012.7 |
| 20260509152201 | 47 | 94 | 0.0 | 1.7 | 0.03 | 0.33 | 0.33 | 96 | 1012.7 |
| 20260509151658 | 47 | 104 | 0.0 | 0.0 | 0.02 | 0.32 | 0.32 | 97 | 1013.0 |
| 20260509151155 | 47 | 105 | 0.0 | 0.0 | 0.02 | 0.32 | 0.32 | 96 | 1013.0 |
| 20260509150653 | 47 | 108 | 0.0 | 0.0 | 0.01 | 0.31 | 0.31 | 96 | 1013.0 |
| 20260509150151 | 47 | 111 | 0.0 | 0.0 | 0.01 | 0.31 | 0.31 | 96 | 1013.0 |
| 20260509145647 | 47 | 110 | 0.0 | 0.0 | 0.10 | 0.30 | 0.30 | 96 | 1013.0 |
| 20260509145142 | 46 | 127 | 0.0 | 0.0 | 0.09 | 0.29 | 0.29 | 96 | 1013.0 |
| 20260509144639 | 46 | 100 | 0.0 | 0.0 | 0.08 | 0.28 | 0.28 | 96 | 1013.0 |
| 20260509144136 | 46 | 102 | 0.0 | 0.0 | 0.07 | 0.27 | 0.27 | 96 | 1013.0 |
| 20260509143633 | 46 | 110 | 0.0 | 0.0 | 0.07 | 0.27 | 0.27 | 96 | 1013.0 |
| 20260509143131 | 46 | 102 | 0.0 | 0.0 | 0.06 | 0.26 | 0.26 | 96 | 1012.7 |
| 20260509142626 | 46 | 107 | 0.0 | 0.0 | 0.05 | 0.25 | 0.25 | 96 | 1013.0 |
| 20260509142123 | 46 | 106 | 0.0 | 0.0 | 0.04 | 0.24 | 0.24 | 96 | 1013.0 |
| 20260509141619 | 46 | 105 | 0.0 | 0.0 | 0.02 | 0.22 | 0.22 | 96 | 1013.0 |
| 20260509141115 | 46 | 100 | 0.0 | 0.0 | 0.01 | 0.21 | 0.21 | 96 | 1013.0 |
| 20260509140612 | 46 | 103 | 0.0 | 0.0 | 0.01 | 0.21 | 0.21 | 96 | 1012.7 |
| 20260509140110 | 46 | 99 | 0.0 | 0.0 | 0.00 | 0.20 | 0.20 | 96 | 1012.7 |
| 20260509135607 | 46 | 110 | 0.0 | 0.0 | 0.05 | 0.19 | 0.19 | 96 | 1012.7 |
| 20260509135105 | 46 | 110 | 0.0 | 0.0 | 0.04 | 0.18 | 0.18 | 96 | 1013.0 |
| 20260509134601 | 46 | 103 | 0.0 | 0.0 | 0.03 | 0.17 | 0.17 | 96 | 1012.7 |
| 20260509134059 | 46 | 104 | 0.0 | 0.0 | 0.03 | 0.17 | 0.17 | 96 | 1012.7 |
| 20260509133556 | 46 | 101 | 0.0 | 0.0 | 0.02 | 0.16 | 0.16 | 95 | 1012.7 |
| 20260509133053 | 45 | 95 | 0.0 | 0.0 | 0.01 | 0.15 | 0.15 | 95 | 1013.0 |
| 20260509132551 | 45 | 107 | 0.0 | 0.0 | 0.00 | 0.14 | 0.14 | 95 | 1013.0 |
| 20260509132049 | 45 | 109 | 0.0 | 0.0 | 0.00 | 0.14 | 0.14 | 95 | 1012.7 |
| 20260509131545 | 45 | 109 | 0.0 | 0.0 | 0.00 | 0.14 | 0.14 | 95 | 1012.7 |
| 20260509131042 | 45 | 101 | 0.0 | 0.0 | 0.00 | 0.14 | 0.14 | 95 | 1012.7 |
| 20260509130537 | 45 | 110 | 0.0 | 0.0 | 0.00 | 0.14 | 0.14 | 95 | 1012.7 |
| 20260509130035 | 45 | 100 | 0.0 | 0.0 | 0.09 | 0.14 | 0.14 | 95 | 1012.7 |
| 20260509125531 | 45 | 106 | 0.0 | 0.0 | 0.09 | 0.14 | 0.14 | 95 | 1012.7 |
| 20260509125028 | 45 | 104 | 0.0 | 0.0 | 0.09 | 0.14 | 0.14 | 95 | 1012.7 |
| 20260509124524 | 45 | 99 | 0.0 | 0.0 | 0.08 | 0.13 | 0.13 | 95 | 1012.7 |
| 20260509124022 | 45 | 111 | 0.0 | 0.0 | 0.08 | 0.13 | 0.13 | 95 | 1013.0 |
| 20260509123520 | 45 | 102 | 0.0 | 0.0 | 0.07 | 0.12 | 0.12 | 95 | 1013.0 |
| 20260509123016 | 45 | 105 | 0.0 | 0.0 | 0.06 | 0.11 | 0.11 | 95 | 1013.4 |
| 20260509122512 | 45 | 113 | 0.0 | 0.0 | 0.05 | 0.10 | 0.10 | 95 | 1013.0 |
| 20260509122009 | 45 | 108 | 0.0 | 0.0 | 0.04 | 0.09 | 0.09 | 95 | 1013.0 |
| 20260509121506 | 45 | 96 | 0.0 | 0.0 | 0.03 | 0.08 | 0.08 | 95 | 1013.0 |
| 20260509121004 | 45 | 117 | 0.0 | 0.0 | 0.02 | 0.07 | 0.07 | 94 | 1013.0 |
| 20260509120502 | 44 | 102 | 0.0 | 0.0 | 0.01 | 0.06 | 0.06 | 94 | 1013.0 |
| 20260509115959 | 44 | 101 | 0.0 | 0.0 | 0.03 | 0.05 | 0.05 | 94 | 1013.0 |
| 20260509115456 | 44 | 91 | 0.0 | 0.0 | 0.03 | 0.05 | 0.05 | 94 | 1013.4 |
| 20260509114954 | 44 | 109 | 0.0 | 0.0 | 0.02 | 0.04 | 0.04 | 94 | 1013.0 |
| 20260509114452 | 44 | 126 | 0.0 | 1.7 | 0.02 | 0.04 | 0.04 | 94 | 1013.0 |
| 20260509113951 | 44 | 100 | 0.0 | 0.0 | 0.02 | 0.04 | 0.04 | 94 | 1013.0 |
| 20260509113448 | 44 | 107 | 0.0 | 0.0 | 0.01 | 0.03 | 0.03 | 94 | 1013.0 |
| 20260509112945 | 44 | 106 | 0.0 | 0.0 | 0.01 | 0.03 | 0.03 | 94 | 1013.0 |
| 20260509112443 | 44 | 105 | 0.0 | 0.0 | 0.01 | 0.03 | 0.03 | 94 | 1013.0 |
| 20260509111938 | 44 | 107 | 0.0 | 0.0 | 0.01 | 0.03 | 0.03 | 94 | 1013.0 |
| 20260509111437 | 44 | 105 | 0.0 | 0.0 | 0.01 | 0.03 | 0.03 | 93 | 1013.4 |
| 20260509110934 | 44 | 109 | 0.0 | 0.0 | 0.01 | 0.03 | 0.03 | 93 | 1013.0 |
| 20260509110429 | 43 | 103 | 0.0 | 0.0 | 0.01 | 0.03 | 0.03 | 93 | 1013.4 |
| 20260509105928 | 43 | 100 | 0.0 | 0.0 | 0.00 | 0.02 | 0.02 | 93 | 1013.4 |
| 20260509105426 | 43 | 101 | 0.0 | 0.0 | 0.00 | 0.02 | 0.02 | 93 | 1013.0 |
| 20260509104923 | 43 | 103 | 0.0 | 0.0 | 0.00 | 0.02 | 0.02 | 93 | 1013.0 |
| 20260509104420 | 43 | 105 | 0.0 | 0.0 | 0.00 | 0.02 | 0.02 | 93 | 1013.0 |
| 20260509103917 | 43 | 105 | 0.0 | 0.0 | 0.00 | 0.02 | 0.02 | 93 | 1013.0 |
| 20260509103414 | 43 | 108 | 0.0 | 0.0 | 0.00 | 0.02 | 0.02 | 92 | 1013.0 |
| 20260509102912 | 43 | 111 | 0.0 | 0.0 | 0.00 | 0.02 | 0.02 | 92 | 1013.4 |
| 20260509102409 | 43 | 109 | 0.0 | 0.0 | 0.00 | 0.02 | 0.02 | 92 | 1013.0 |
| 20260509101905 | 43 | 105 | 0.0 | 0.0 | 0.00 | 0.02 | 0.02 | 92 | 1013.0 |
| 20260509101401 | 43 | 103 | 0.0 | 0.0 | 0.00 | 0.02 | 0.02 | 92 | 1013.4 |
| 20260509100859 | 43 | 102 | 0.0 | 0.0 | 0.00 | 0.02 | 0.02 | 92 | 1013.4 |
| 20260509100356 | 43 | 108 | 0.0 | 0.0 | 0.00 | 0.02 | 0.02 | 92 | 1013.4 |
| 20260509095853 | 43 | 105 | 0.0 | 0.0 | 0.02 | 0.02 | 0.02 | 92 | 1013.4 |
| 20260509095350 | 43 | 105 | 0.0 | 0.0 | 0.02 | 0.02 | 0.02 | 91 | 1013.0 |
| 20260509094847 | 43 | 105 | 0.0 | 0.0 | 0.02 | 0.02 | 0.02 | 91 | 1013.4 |
| 20260509094344 | 43 | 105 | 0.0 | 0.0 | 0.02 | 0.02 | 0.02 | 91 | 1013.4 |
| 20260509093842 | 43 | 106 | 0.0 | 0.0 | 0.02 | 0.02 | 0.02 | 90 | 1013.0 |
| 20260509093338 | 43 | 107 | 0.0 | 0.0 | 0.02 | 0.02 | 0.02 | 90 | 1013.4 |
| 20260509092837 | 43 | 105 | 0.0 | 0.0 | 0.01 | 0.01 | 0.01 | 89 | 1013.4 |
| 20260509092334 | 43 | 106 | 0.0 | 0.0 | 0.01 | 0.01 | 0.01 | 89 | 1013.4 |
| 20260509091832 | 43 | 106 | 0.0 | 0.0 | 0.01 | 0.01 | 0.01 | 89 | 1013.4 |
| 20260509091329 | 43 | 106 | 0.0 | 0.0 | 0.01 | 0.01 | 0.01 | 88 | 1013.4 |
| 20260509090826 | 43 | 108 | 0.0 | 0.0 | 0.01 | 0.01 | 0.01 | 87 | 1013.8 |
| 20260509090323 | 43 | 108 | 0.0 | 0.0 | 0.01 | 0.01 | 0.01 | 87 | 1013.4 |
| 20260509085821 | 43 | 107 | 0.0 | 0.0 | 0.00 | 0.00 | 0.00 | 86 | 1013.4 |
| 20260509085318 | 43 | 108 | 0.0 | 0.0 | 0.00 | 0.00 | 0.00 | 86 | 1013.4 |
| 20260509084814 | 43 | 109 | 0.0 | 0.0 | 0.00 | 0.00 | 0.00 | 85 | 1013.4 |
| 20260509084311 | 43 | 121 | 0.0 | 0.0 | 0.00 | 0.00 | 0.00 | 85 | 1013.4 |
| 20260509083809 | 43 | 95 | 0.0 | 0.0 | 0.00 | 0.00 | 0.00 | 84 | 1013.8 |
| 20260509083306 | 43 | 109 | 0.0 | 0.0 | 0.00 | 0.00 | 0.00 | 84 | 1013.4 |
| 20260509082802 | 43 | 106 | 0.0 | 0.0 | 0.00 | 0.00 | 0.00 | 85 | 1013.4 |
| 20260509082259 | 43 | 105 | 0.0 | 0.0 | 0.00 | 0.00 | 0.00 | 85 | 1013.8 |
| 20260509081756 | 43 | 101 | 0.0 | 0.0 | 0.00 | 0.00 | 0.00 | 85 | 1013.8 |
| 20260509081253 | 43 | 101 | 0.0 | 0.0 | 0.00 | 0.00 | 0.00 | 86 | 1013.4 |
| 20260509080751 | 42 | 101 | 0.0 | 0.0 | 0.00 | 0.00 | 0.00 | 86 | 1013.4 |
| 20260509080249 | 42 | 100 | 0.0 | 0.0 | 0.00 | 0.00 | 0.00 | 86 | 1013.4 |
| 20260509075747 | 42 | 100 | 0.0 | 0.0 | 0.00 | 0.00 | 0.00 | 87 | 1013.4 |
| 20260509075244 | 42 | 96 | 0.0 | 0.0 | 0.00 | 0.00 | 0.00 | 87 | 1013.0 |
| 20260509074741 | 42 | 105 | 0.0 | 0.0 | 0.00 | 0.00 | 0.00 | 87 | 1013.0 |
| 20260509074239 | 42 | 105 | 0.0 | 0.0 | 0.00 | 0.00 | 0.00 | 87 | 1013.0 |
| 20260509073734 | 42 | 105 | 0.0 | 0.0 | 0.00 | 0.00 | 0.00 | 87 | 1013.0 |
| 20260509073231 | 41 | 105 | 0.0 | 0.0 | 0.00 | 0.00 | 0.00 | 87 | 1012.7 |
| 20260509072727 | 41 | 105 | 0.0 | 0.0 | 0.00 | 0.00 | 0.00 | 87 | 1013.0 |
| 20260509072224 | 41 | 105 | 0.0 | 0.0 | 0.00 | 0.00 | 0.00 | 87 | 1013.0 |
| 20260509071721 | 41 | 105 | 0.0 | 0.0 | 0.00 | 0.00 | 0.00 | 87 | 1012.7 |
| 20260509071219 | 41 | 105 | 0.0 | 0.0 | 0.00 | 0.00 | 0.00 | 87 | 1012.7 |
| 20260509070715 | 41 | 106 | 0.0 | 0.0 | 0.00 | 0.00 | 0.00 | 87 | 1012.4 |
| 20260509070212 | 41 | 105 | 0.0 | 0.0 | 0.00 | 0.00 | 0.00 | 87 | 1012.7 |
| 20260509065708 | 41 | 105 | 0.0 | 0.0 | 0.00 | 0.00 | 0.00 | 87 | 1013.0 |
| 20260509065204 | 41 | 104 | 0.0 | 0.0 | 0.00 | 0.00 | 0.00 | 86 | 1013.0 |
| 20260509064701 | 41 | 105 | 0.0 | 0.0 | 0.00 | 0.00 | 0.00 | 86 | 1013.0 |
| 20260509064159 | 41 | 105 | 0.0 | 0.0 | 0.00 | 0.00 | 0.00 | 86 | 1013.0 |
| 20260509063656 | 41 | 105 | 0.0 | 0.0 | 0.00 | 0.00 | 0.00 | 86 | 1013.0 |
| 20260509063152 | 41 | 103 | 0.0 | 0.0 | 0.00 | 0.00 | 0.00 | 85 | 1013.0 |
| 20260509062649 | 41 | 102 | 0.0 | 0.0 | 0.00 | 0.00 | 0.00 | 85 | 1012.7 |
| 20260509062146 | 41 | 105 | 0.0 | 0.0 | 0.00 | 0.00 | 0.00 | 85 | 1013.0 |
| 20260509061643 | 42 | 105 | 0.0 | 0.0 | 0.00 | 0.00 | 0.00 | 85 | 1013.4 |
| 20260509061141 | 42 | 105 | 0.0 | 0.0 | 0.00 | 0.00 | 0.00 | 84 | 1013.4 |
| 20260509060638 | 42 | 105 | 0.0 | 0.0 | 0.00 | 0.00 | 0.00 | 84 | 1013.4 |
| 20260509060134 | 42 | 105 | 0.0 | 0.0 | 0.00 | 0.00 | 0.00 | 83 | 1013.0 |
| 20260509055630 | 42 | 105 | 0.0 | 0.0 | 0.00 | 0.00 | 0.00 | 83 | 1013.4 |
| 20260509055126 | 42 | 106 | 0.0 | 0.0 | 0.00 | 0.00 | 0.00 | 83 | 1013.4 |
| 20260509054623 | 43 | 105 | 0.0 | 0.0 | 0.00 | 0.00 | 0.00 | 82 | 1013.4 |
| 20260509054120 | 43 | 105 | 0.0 | 0.0 | 0.00 | 0.00 | 0.00 | 81 | 1013.4 |
| 20260509053619 | 43 | 106 | 0.0 | 0.0 | 0.00 | 0.00 | 0.00 | 81 | 1013.4 |
| 20260509053115 | 43 | 106 | 0.0 | 0.0 | 0.00 | 0.00 | 0.00 | 80 | 1013.4 |
| 20260509052613 | 44 | 105 | 0.0 | 0.0 | 0.00 | 0.00 | 0.00 | 80 | 1013.8 |
| 20260509052111 | 44 | 108 | 0.0 | 0.0 | 0.00 | 0.00 | 0.00 | 80 | 1013.4 |